Tracking 29606 objects as of 18-Sep-2024
HD Live streaming from Space Station
objects crossing your sky now

STARLINK-30329

Track STARLINK-30329 now!
10-day predictions
STARLINK-30329 is classified as:


NORAD ID: 57635
Int'l Code: 2023-122D
Perigee: 565.4 km
Apogee: 567.0 km
Inclination: 43.0 °
Period: 95.8 minutes
Semi major axis: 6937 km
RCS: Unknown
Launch date: August 17, 2023
Source: United States (US)
Launch site: AIR FORCE EASTERN TEST RANGE (AFETR)
Your satellite tracking list
Your tracking list is empty




NASA's NSSDC Master Catalog

Two Line Element Set (TLE):
1 57635U 23122D   24261.38826737  .00001141  00000-0  99492-4 0  9999
2 57635  43.0030 139.9301 0001155 280.9380  79.1332 15.02539709 61201
Source of the keplerian elements: AFSPC